Change the Weather History Date:

Thursday, September 27, 2012

  Actual Average Record
Temperature  
Mean Temperature 73 °F 69 °F  
Max Temperature 87 °F 80 °F 94 °F (1954)
Min Temperature 58 °F 58 °F 44 °F (1940)
Degree Days  
Heating Degree Days 0 1  
Month to date heating degree days 2 5  
Since 1 July heating degree days 2 5  
Cooling Degree Days 8 5  
Month to date cooling degree days 224 245  
Year to date cooling degree days 1911 1800  
Growing Degree Days 22 (Base 50)    
Moisture  
Dew Point 59 °F    
Average Humidity 69    
Maximum Humidity 100    
Minimum Humidity 37    
Precipitation  
Precipitation 0.00 in 0.15 in 3.69 in (2004)
Month to date precipitation 4.33 3.47  
Year to date precipitation 28.06 34.76  
Sea Level Pressure  
Sea Level Pressure 30.17 in    
Wind  
Wind Speed 1 mph (NNW)    
Max Wind Speed 10 mph    
Max Gust Speed 15 mph    
Visibility 6 miles    
Events Fog    
T = Trace of Precipitation, MM = Missing Value Source: NWS Daily Summary

Daily Weather History Graph

Daily Weather History Graph

Search for Another Location

Airport or City:

Trip Planner

Search our weather history database for the weather conditions in past years. The results will help you decide how hot, cold, wet, or windy it might be!

Date:

Astronomy

Sep. 27, 2012 Rise Set
Actual Time 7:25 AM EDT 7:22 PM EDT
Civil Twilight 7:00 AM EDT 7:47 PM EDT
Nautical Twilight 6:31 AM EDT 8:16 PM EDT
Astronomical Twilight 6:02 AM EDT 8:45 PM EDT
Moon 5:49 PM EDT (9/27) 4:58 AM EDT (9/27)
Length of Visible Light 12h 46m
Length of Day
11h 57m
Waxing Gibbous, 94% of the Moon is Illuminated
Sep 27
Waxing Gibbous
Sep 29
Full
Oct 8
Last Quarter
Oct 15
New
Oct 21
First Quarter

Hourly Weather History & Observations

Time (EDT) Temp. Heat Index Dew Point Humidity Pressure Visibility Wind Dir Wind Speed Gust Speed Precip Events Conditions
12:51 AM 59.0 °F - 55.9 °F 90% 30.19 in 8.0 mi Calm Calm - N/A   Clear
1:51 AM 61.0 °F - 55.9 °F 83% 30.19 in 8.0 mi Calm Calm - N/A   Clear
2:51 AM 60.1 °F - 57.9 °F 93% 30.18 in 6.0 mi Calm Calm - N/A   Clear
3:51 AM 57.9 °F - 55.9 °F 93% 30.16 in 6.0 mi Calm Calm - N/A   Clear
4:32 AM 57.2 °F - 57.2 °F 100% 30.17 in 5.0 mi Calm Calm - N/A   Mostly Cloudy
4:51 AM 60.1 °F - 57.9 °F 93% 30.16 in 6.0 mi Calm Calm - N/A   Overcast
5:16 AM 59.0 °F - 57.2 °F 94% 30.17 in 6.0 mi Calm Calm - N/A   Scattered Clouds
5:41 AM 59.0 °F - 57.2 °F 94% 30.19 in 6.0 mi Calm Calm - N/A   Mostly Cloudy
5:51 AM 60.1 °F - 59.0 °F 96% 30.18 in 6.0 mi Calm Calm - N/A   Overcast
6:03 AM 60.8 °F - 59.0 °F 94% 30.19 in 6.0 mi Calm Calm - N/A   Overcast
6:51 AM 61.0 °F - 59.0 °F 93% 30.19 in 6.0 mi Calm Calm - N/A   Overcast
7:29 AM 62.6 °F - 59.0 °F 88% 30.21 in 5.0 mi Calm Calm - N/A   Overcast
7:47 AM 60.8 °F - 60.8 °F 100% 30.21 in 0.2 mi Calm Calm - N/A Fog Fog
7:51 AM 61.0 °F - 60.1 °F 97% 30.20 in 0.1 mi Calm Calm - N/A Fog Fog
8:51 AM 62.1 °F - 60.1 °F 93% 30.22 in 0.2 mi Calm Calm - N/A Fog Fog
8:58 AM 62.6 °F - 60.8 °F 94% 30.23 in 2.5 mi Calm Calm - N/A   Partly Cloudy
9:06 AM 64.4 °F - 60.8 °F 88% 30.23 in 3.0 mi Calm Calm - N/A   Clear
9:51 AM 70.0 °F - 61.0 °F 73% 30.22 in 4.0 mi Calm Calm - N/A   Haze
10:51 AM 75.0 °F - 62.1 °F 64% 30.23 in 5.0 mi Calm Calm - N/A   Haze
11:51 AM 79.0 °F - 62.1 °F 56% 30.22 in 7.0 mi Variable 3.5 mph - N/A   Clear
12:51 PM 82.4 °F 82.9 °F 60.8 °F 48% 30.21 in 8.0 mi NNE 4.6 mph - N/A   Clear
1:51 PM 82.4 °F 82.5 °F 59.0 °F 45% 30.18 in 8.0 mi Calm Calm - N/A   Clear
2:51 PM 86.0 °F 85.0 °F 57.9 °F 38% 30.14 in 8.0 mi Variable 3.5 mph - N/A   Mostly Cloudy
3:51 PM 82.4 °F 82.0 °F 57.2 °F 42% 30.14 in 8.0 mi NNW 4.6 mph - N/A   Partly Cloudy
4:51 PM 82.9 °F 82.6 °F 57.9 °F 42% 30.11 in 8.0 mi NW 4.6 mph - N/A   Scattered Clouds
5:51 PM 82.9 °F 82.6 °F 57.9 °F 42% 30.10 in 9.0 mi Calm Calm - N/A   Clear
6:51 PM 79.0 °F - 60.1 °F 52% 30.11 in 8.0 mi Calm Calm - N/A   Clear
7:51 PM 73.9 °F - 63.0 °F 68% 30.12 in 9.0 mi Calm Calm - N/A   Clear
8:51 PM 68.0 °F - 62.1 °F 81% 30.12 in 8.0 mi Calm Calm - N/A   Clear
9:51 PM 70.0 °F - 62.1 °F 76% 30.12 in 8.0 mi Calm Calm - N/A   Clear
10:51 PM 66.9 °F - 62.1 °F 84% 30.13 in 7.0 mi Calm Calm - N/A   Clear
11:51 PM 66.0 °F - 61.0 °F 84% 30.13 in 7.0 mi Calm Calm - N/A   Clear